Location: Unspecified
(48.2082°N, 0.0000°E)
Time: 22:58:47
(UTC+00:00)

Altair - Pass Details

Date: 19 June 2019
Orbit: 1501 x 1683 km, 47.2° (Epoch: 19 July)

Event Time Altitude Azimuth Distance (km) Brightness Sun altitude
Rises 21:44:12 0° 247° (WSW) 4,739 10.2 -12.0°
Reaches altitude 10° 21:47:13 10° 245° (WSW) 3,780 9.6 -12.3°
Maximum altitude 21:56:51 76° 162° (SSE) 1,673 7.5 -13.1°
Drops below altitude 10° 22:06:51 10° 80° (E) 3,920 9.5 -13.9°
Sets 22:10:03 0° 79° (E) 4,922 10.0 -14.1°
